User: anonymous   Login
Location: Parc des �les de St-Timoth�e
(45.2924°N, 74.0481°W)
Time: 07:05:04
(UTC-05:00)
Language:

Cosmos 2173 Rocket - Orbit

View from above orbital plane
View from above orbital plane
View from above satellite
View from above satellite

Ground track
Ground track

The orbit data is extracted from the following two-line orbital elements,

1 21797U 91081B   14325.52729271  .00000113  00000-0  98464-4 0  5609
2 21797 082.9557 039.2095 0038107 196.1863 287.6787 13.77300681155186
Epoch (UTC): 21 November 2014 12:39:18
Eccentricity: 0.0038107
inclination: 82.9557°
perigee height: 945 km
apogee height: 1001 km
right ascension of ascending node: 39.2095°
argument of perigee: 196.1863°
revolutions per day: 13.77300681
mean anomaly at epoch: 287.6787°
orbit number at epoch: 15518

The dashed part of the orbit path shows where the satellite is in the earth's shadow,  

DLR